リニア彗星

222P/LINEAR (2019)

English version
Home page
Updated on November 4, 2020

---------------------------------------------------------------------

・ プロフィール

・ 軌道要素

Epoch 2019 June 6.0 TT = JDT 2458640.5
T 2019 June 5.05104 TT                                  MPCW
q   0.8283603            (2000.0)            P               Q
n   0.19968842     Peri.  346.21748     +0.99249753     +0.12181019
a   2.8989060      Node     6.81220     -0.10206938     +0.87290330
e   0.7142507      Incl.    5.09419     -0.06730893     +0.47244270
P   4.94
From 199 observations 2004 Dec. 9-2015 Jan. 27, mean residual 0".6.

・ 星図

・ 光度変化

        H = 18.5  G = 0.15                        [   ,-71]  (              〜2019年 3月26日)
        m1 = 17.5 + 5 logΔ + 20.0 log r(t - 10)  [-71, 91]  (2019年 3月26日〜2019年 9月 4日)
        H = 18.5  G = 0.15                        [ 91,   ]  (2019年 9月 4日〜              )

---------------------------------------------------------------------

軌道要素はM.P.E.C. 2015-B177に掲載されたものです。
星図はステラナビゲータ Ver.10 (アストロアーツ) で作成したものです。
光度グラフはComet for Windowsで作成したものです。

---------------------------------------------------------------------

Copyright(C) Seiichi Yoshida (comet@aerith.net). All rights reserved.